SCP
0 0 0 0 0 0 0 0 0 0 0 0 0 0 0 0 0 0 0 0 0 0 0 0 -0 -0 -0 -0 -0 -0 0 0 -0 -0 -0 0 0 0 0 0 0 0 -0 -0 -0
0 0 0 0 0 0 0 0 0 0 0 0 0 0 0 0 0 0 0 0 0 0 0 0 0 0 -0 0 0 0 0 0 -0 -0 -0 -0 0 -0 0 0 0 -0 -0 -0 -0
0 0 0 0 0 0 0 0 0 0 0 0 0 0 0 0 0 0 0 0 0 -0 0 -0 0 -0 -0 0 0 0 0 0 -0 -0 -0 0 -0 0 -0 0 0 -0 -0 -0 -0
0 0 0 0 0 0 0 0 0 0 0 0 0 0 0 0 0 0 0 0 0 -0 0 0 0 0 0 0 0 0 -0 0 -0 0 -0 0 0 -0 0 0 0 -0 -0 -0 -0
-0 0 0 0 0 0 0 0 0 0 0 0 0 0 0 0 0 0 0 0 0 -0 -0 0 0 0 0 0 0 0 0 0 0 -0 -0 -0 0 -0 0 0 0 -0 -0 -0 -0
0 0 -0 0 0 0 0 0 0 0 0 0 0 0 0 0 0 0 -0 0 0 -0 -0 0 0 0 0 0 0 0 0 0 -0 -0 0 -0 -0 0 0 0 0 -0 -0 0 -0
0 0 -0 -0 0 0 0 0 0 0 0 0 0 0 0 0 0 0 0 0 0 -0 -0 -0 0 0 0 0 0 0 0 0 -0 0 -0 -0 -0 -0 0 0 0 -0 -0 0 -0
-0 -0 -0 0 0 0 0 0 0 0 0 0 0 0 0 0 0 0 0 0 0 0 0 0 0 0 0 0 0 0 0 -0 0 0 0 0 0 -0 -0 0 0 -0 -0 -0 -0
-0 -0 -0 -0 0 0 0 0 0 0 0 0 0 0 0 0 0 0 0 0 0 0 0 0 0 0 0 0 0 0 0 0 0 -0 -0 0 0 -0 -0 0 0 -0 -0 0 -0
-0 -0 -0 -0 -0 0 -0 -0 0 0 0 0 0 0 0 0 0 0 0 0 0 0 0 0 0 0 0 0 0 0 -0 -0 0 0 0 0 -0 -0 0 0 0 0 0 0 0
-0 0 -0 -0 -0 -0 -0 0 0 0 0 0 0 0 0 0 0 0 0 0 0 0 0 0 0 0 0 0 0 0 0 0 0 0 -0 0 0 -0 -0 -0 0 -0 -0 0 -0
-0 -0 -0 -0 -0 -0 -0 0 0 0 0 0 0 0 0 0 0 0 0 0 0 0 0 0 0 0 0 0 0 0 0 0 0 0 0 -0 0 0 0 -0 -0 -0 -0 -0 0
-0 -0 -0 -0 -0 -0 -0 0 0 0 0 0 0 0 0 0 0 0 0 0 0 0 0 0 0 0 0 0 0 0 0 0 0 0 0 0 0 0 0 -0 -0 -0 -0 0 0
-0 -0 -0 -0 -0 -0 -0 0 -0 0 0 0 0 0 0 -0 0 0 0 0 0 0 0 0 0 0 0 0 0 0 0 0 0 0 0 -0 0 -0 -0 0 -0 -0 0 0 0
-0 -0 -0 -0 -0 -0 0 -0 -0 0 -0 0 0 0 0 -0 0 0 -0 0 0 0 0 0 0 0 0 0 0 0 0 0 0 0 0 0 0 0 -0 0 0 0 0 0 0
-0 -0 -0 0 0 0 -0 -0 -0 0 0 0 0 0 0 -0 0 0 -0 0 0 0 0 0 0 0 0 0 0 0 0 0 0 0 0 0 -0 0 0 0 0 0 -0 0 -0
-0 -0 0 -0 -0 -0 -0 -0 0 0 0 0 0 0 -0 0 0 0 0 0 0 0 0 0 0 0 0 0 0 0 0 0 0 0 0 0 0 0 0 0 0 0 0 0 -0
-0 -0 0 0 0 0 0 -0 0 0 0 0 0 -0 -0 0 0 0 0 0 0 0 0 0 0 0 0 0 0 0 -0 0 0 0 0 0 0 0 0 0 0 0 0 0 -0
-0 0 0 0 0 0 -0 -0 -0 0 0 0 0 -0 0 0 0 0 0 0 0 0 0 0 0 0 0 0 0 0 0 -0 0 0 0 0 0 0 0 0 0 0 1 0 0
0 0 0 0 0 -0 -0 0 0 0 0 0 0 0 0 0 0 0 0 0 0 0 0 0 0 0 0 0 0 0 0 0 0 0 0 0 0 0 0 0 0 1 1 1 1
0 0 -0 -0 -0 -0 -0 -0 0 -0 0 0 0 0 0 0 -0 0 0 0 0 0 0 0 0 0 0 0 0 0 0 0 0 0 0 0 0 0 0 0 0 0 0 1 1
0 0 -0 -0 -0 0 -0 0 0 0 0 0 0 0 0 0 0 0 0 0 0 0 0 0 0 -0 -0 0 0 0 0 0 0 0 0 0 0 0 0 0 0 0 0 0 0
0 0 0 -0 -0 0 0 -0 -0 0 0 0 0 0 0 0 0 0 0 0 0 0 0 0 0 0 0 0 0 0 0 0 0 0 0 0 0 0 0 0 0 0 0 0 0
0 0 0 0 -0 0 0 0 -0 0 -0 0 0 0 0 0 0 0 0 0 0 0 0 0 0 0 0 0 0 0 0 0 0 0 0 0 0 0 0 0 0 0 0 0 0
0 0 -0 0 0 -0 0 0 0 -0 -0 0 0 0 0 0 0 0 0 0 0 0 0 0 0 0 0 0 0 0 0 0 0 0 0 0 0 0 0 0 0 0 0 0 0
0 0 0 0 0 -0 0 -0 -0 -0 -0 -0 0 0 0 0 0 0 0 0 0 0 0 0 0 0 0 0 0 0 0 0 0 0 0 0 0 0 0 0 0 0 0 0 0
0 0 0 0 0 -0 0 -0 -0 -0 -0 -0 0 0 0 0 0 0 0 0 0 0 0 0 0 0 0 0 0 0 0 0 0 0 0 0 0 0 0 0 0 0 0 0 0
Wind_Speed_500mb
27 26 25 24 25 24 23 21 18 17 19 18 18 19 19 18 19 23 29 20 31 27 38 32 34 29 28 29 30 24 6 5 15 20 27 23 15 7 13 14 10 13 38 61 64
28 29 29 28 28 26 25 24 20 18 17 20 19 18 18 19 20 33 31 34 31 35 38 43 40 34 35 28 16 14 2 4 15 5 30 41 30 29 8 20 26 27 58 63 62
28 27 28 28 27 27 27 25 24 18 17 18 19 17 15 12 19 18 32 29 34 40 33 37 32 35 36 25 26 16 5 6 14 32 28 29 30 21 19 17 33 48 66 66 61
27 29 27 27 26 27 25 27 24 22 17 16 17 15 11 10 5 4 19 28 36 43 36 38 36 37 30 26 26 12 34 8 18 12 24 31 34 21 15 7 30 42 60 65 59
26 24 25 26 26 27 25 25 26 24 19 16 13 12 8 14 21 19 17 26 40 47 43 41 40 37 28 27 21 15 8 7 14 12 25 31 30 22 17 13 29 42 61 60 55
29 30 29 27 26 26 27 25 25 24 20 18 12 9 9 27 6 15 15 38 45 44 44 39 34 35 21 20 22 32 21 9 8 22 24 29 27 23 19 23 31 51 63 57 51
31 31 33 32 29 27 26 26 25 23 18 17 12 10 19 4 5 12 23 35 42 41 41 38 25 23 23 18 27 11 16 20 15 22 26 33 23 21 27 29 37 52 59 54 49
33 31 30 32 32 28 26 24 21 17 15 14 11 9 15 19 14 21 28 30 36 35 32 31 24 31 21 14 25 27 26 24 20 25 20 10 21 32 32 35 39 51 56 51 47
32 31 30 29 28 26 23 13 7 8 13 13 6 17 18 13 29 29 29 35 33 32 28 26 21 34 28 21 27 28 29 26 26 28 28 19 24 40 37 36 39 48 53 49 47
32 29 27 26 24 16 4 6 12 14 15 13 9 16 23 32 36 33 31 31 34 32 24 28 25 28 26 28 31 36 34 34 24 20 21 34 39 35 36 37 38 44 50 46 48
29 26 23 18 11 6 21 8 5 8 24 18 22 17 16 40 39 33 33 35 36 33 29 39 25 33 40 41 40 35 39 29 23 30 24 21 25 41 37 32 35 31 40 40 46
23 18 12 7 10 17 8 11 10 9 17 33 11 13 9 42 41 37 38 33 33 33 42 27 36 32 30 32 38 31 42 28 26 18 17 33 38 32 38 49 41 40 45 47 45
22 14 8 13 12 8 2 6 8 10 16 30 28 32 28 39 41 46 44 40 34 39 42 30 30 31 25 28 26 33 33 26 30 15 31 28 28 23 24 27 62 46 43 49 49
23 11 12 7 2 1 5 8 11 9 12 25 26 24 35 38 32 41 45 35 24 36 34 31 21 34 26 31 34 36 32 21 24 30 24 29 17 39 39 31 24 37 44 46 53
21 12 8 6 5 14 8 10 9 9 12 24 32 29 34 46 36 36 46 40 30 31 21 33 23 26 32 34 31 22 31 7 28 27 22 32 16 15 41 35 32 40 40 47 65
17 15 0 4 11 10 13 14 7 16 2 16 19 26 37 43 27 48 47 31 24 28 27 31 25 25 36 33 32 10 26 19 18 28 27 23 28 24 16 24 8 36 43 45 49
11 18 8 7 13 16 15 15 16 6 8 17 26 35 40 29 31 33 41 33 24 27 25 26 19 33 28 34 28 23 30 23 23 23 22 33 32 23 21 14 4 23 47 40 53
14 16 13 14 15 13 12 24 5 25 13 14 7 35 35 34 28 37 36 34 27 30 27 24 29 25 26 34 25 34 40 24 23 26 29 35 17 18 21 19 16 14 9 46 39
16 8 7 15 14 12 27 14 14 6 11 14 23 32 22 28 20 32 25 27 17 12 16 29 21 14 11 28 11 35 40 47 24 28 27 26 39 23 24 25 25 28 17 19 38
11 15 3 14 11 19 28 6 14 14 6 16 21 13 22 23 23 32 22 9 6 9 23 11 22 27 21 16 28 27 30 39 19 26 35 32 34 27 28 26 24 28 49 44 37
11 17 7 10 11 34 9 21 12 14 14 12 13 14 19 30 31 25 17 12 7 16 19 21 10 22 13 31 32 24 26 39 27 31 27 22 20 37 28 27 29 48 38 35 37
13 9 17 6 26 8 15 9 3 10 7 6 8 22 3 7 3 7 13 14 7 16 20 8 14 24 34 9 11 22 26 32 22 39 27 8 20 28 32 35 47 40 31 37 41
8 13 13 14 8 11 12 17 21 7 10 7 4 7 9 5 3 8 12 7 8 6 5 3 18 13 13 16 18 22 20 25 36 35 29 29 24 20 35 33 39 41 35 33 33
12 3 13 14 12 8 7 8 12 8 16 15 8 11 12 12 4 11 14 6 10 9 9 10 23 18 8 17 30 37 14 25 26 22 23 17 48 37 33 31 33 35 33 33 33
16 11 9 14 17 14 8 4 6 9 10 2 5 7 7 6 6 9 15 15 9 4 5 9 19 10 7 13 14 20 28 15 31 32 17 39 40 34 32 26 28 33 28 29 31
10 6 12 12 4 7 6 16 14 10 7 11 10 5 7 5 14 15 5 7 6 4 2 7 7 17 14 2 2 12 14 9 11 5 15 45 33 30 27 30 24 23 25 26 28
11 8 10 5 1 15 17 12 10 6 13 12 7 7 14 12 12 12 10 5 6 9 6 10 10 13 24 13 11 23 26 23 17 11 17 27 35 28 22 18 18 20 21 23 23
Wind_Direction_500mb
322 317 314 311 310 309 306 303 301 296 293 288 283 285 282 268 258 252 242 230 226 199 176 173 184 196 199 221 227 257 299 319 81 135 143 167 135 129 237 180 147 132 141 146 148
320 316 314 311 307 301 301 299 294 292 287 286 283 284 286 278 271 252 240 221 219 190 179 182 187 189 199 212 232 238 202 78 115 60 148 169 148 159 225 174 145 125 134 147 150
321 318 313 309 304 302 297 294 292 285 281 278 279 284 284 277 290 249 224 220 198 188 181 186 189 192 219 221 216 219 260 96 92 97 139 163 150 159 179 170 144 136 145 153 154
324 322 318 314 310 304 298 293 288 282 272 270 273 277 269 226 245 162 199 200 185 173 186 191 194 202 228 213 219 254 233 120 91 84 103 156 148 158 177 186 143 149 154 156 158
331 328 324 321 317 310 301 292 286 280 269 256 257 268 225 233 252 276 218 189 179 179 193 193 198 206 218 210 189 227 199 157 135 132 113 143 158 117 155 134 139 151 158 160 160
329 326 323 319 313 307 303 293 281 274 263 251 229 243 220 247 273 264 184 178 178 182 192 195 199 210 261 240 207 186 240 177 178 135 147 135 138 150 117 124 141 155 160 163 163
321 321 321 316 311 308 302 291 279 266 251 241 215 199 240 209 180 165 169 173 177 184 190 196 205 203 226 215 223 233 229 220 210 166 153 154 150 129 136 142 146 158 163 165 164
321 319 315 312 312 310 305 297 280 254 231 212 203 186 263 199 184 171 161 173 183 184 194 195 208 216 248 213 188 227 222 201 174 162 142 146 183 127 143 144 152 162 166 168 168
324 321 316 315 314 313 310 308 284 203 187 168 156 200 226 195 175 173 173 170 176 184 189 189 210 213 208 219 207 211 198 222 155 187 159 146 195 144 150 153 160 168 170 173 173
327 325 322 320 318 317 350 93 107 114 149 159 245 216 220 190 172 173 169 171 171 168 175 198 213 207 220 212 202 194 214 194 168 172 198 136 124 140 152 155 171 171 178 181 178
330 331 330 335 341 104 128 74 149 160 207 222 185 262 153 164 164 176 179 178 183 190 201 197 211 208 201 210 230 206 228 198 167 151 205 142 119 138 153 160 168 186 182 187 195
351 349 352 57 82 129 80 272 12 342 250 223 206 246 152 160 167 178 174 182 195 202 216 185 218 211 227 214 238 245 216 199 128 150 248 151 159 136 163 158 169 185 196 190 194
2 9 83 114 102 122 334 351 333 318 252 172 204 200 192 184 183 178 188 204 198 209 207 210 206 227 217 205 211 232 217 188 158 172 244 159 139 155 168 181 164 179 192 189 186
18 30 131 152 145 184 219 317 321 293 262 143 190 207 182 189 203 185 197 209 206 219 203 231 219 205 205 195 216 205 235 181 192 191 203 219 179 171 163 167 190 178 185 184 183
27 51 131 271 235 259 279 308 292 246 246 152 164 170 184 200 134 176 194 214 240 220 200 212 195 200 205 216 204 234 211 243 173 216 200 185 226 175 156 171 174 181 184 182 181
22 35 277 290 267 274 289 292 267 232 151 143 145 193 172 212 159 159 191 228 241 230 202 242 210 192 210 213 192 262 160 210 210 233 242 195 227 182 124 113 144 176 185 193 170
327 348 340 255 296 288 280 242 222 282 250 153 177 181 188 186 161 171 191 196 213 202 192 218 223 197 226 201 186 183 191 187 202 215 224 208 209 85 97 96 181 198 176 196 177
311 324 323 333 301 280 246 240 294 310 29 357 210 182 198 167 177 179 187 200 219 249 185 198 184 177 207 232 177 203 208 198 189 205 203 185 154 111 103 104 78 94 186 179 204
318 322 343 331 293 247 258 323 173 22 342 293 216 204 189 172 181 183 192 200 184 258 308 183 160 115 238 237 273 198 234 234 274 200 214 120 100 118 115 109 112 100 84 132 185
324 260 354 333 301 261 257 143 81 8 295 266 246 172 183 167 214 199 179 33 135 237 286 270 130 188 173 250 244 266 220 240 241 238 208 150 159 136 139 108 90 86 57 37 36
279 253 37 329 284 261 18 60 74 54 331 341 325 171 253 186 204 193 159 83 275 289 288 304 197 168 170 206 206 213 241 235 231 256 213 154 112 118 119 118 109 70 55 51 44
295 299 354 298 260 0 47 35 270 47 45 69 35 357 272 114 295 125 145 29 319 301 237 292 274 162 202 80 314 295 230 235 239 227 267 315 99 121 131 122 99 86 74 58 50
336 39 17 288 295 102 124 98 46 75 36 66 86 22 321 324 98 97 122 71 2 346 12 355 259 150 182 187 210 237 216 268 233 262 236 252 138 146 120 108 102 108 101 81 70
310 241 81 51 28 69 113 93 112 62 77 88 112 166 186 201 177 155 141 120 73 51 328 285 262 277 8 275 194 212 219 235 270 241 250 258 138 154 130 121 115 102 89 80 72
349 51 7 14 48 53 56 17 127 103 87 105 114 207 244 172 158 150 137 149 149 94 247 303 262 267 61 6 339 179 199 206 243 257 312 129 135 136 127 109 100 107 93 82 71
0 11 95 64 353 149 132 47 80 85 338 84 94 118 206 181 329 147 178 236 113 156 270 262 212 288 212 259 255 247 201 217 281 336 259 111 108 101 122 123 108 99 91 77 63
49 63 312 187 229 52 35 42 71 69 62 56 44 117 122 61 18 28 2 22 59 284 201 261 247 222 256 181 259 245 237 211 216 212 305 166 142 142 130 121 115 102 82 68 59
Wind_Speed_850mb
27 26 25 24 25 24 23 21 18 17 19 18 18 19 19 18 19 23 29 20 31 27 38 32 34 29 28 29 30 24 6 5 15 20 27 23 15 7 13 14 10 13 38 61 64
28 29 29 28 28 26 25 24 20 18 17 20 19 18 18 19 20 33 31 34 31 35 38 43 40 34 35 28 16 14 2 4 15 5 30 41 30 29 8 20 26 27 58 63 62
28 27 28 28 27 27 27 25 24 18 17 18 19 17 15 12 19 18 32 29 34 40 33 37 32 35 36 25 26 16 5 6 14 32 28 29 30 21 19 17 33 48 66 66 61
27 29 27 27 26 27 25 27 24 22 17 16 17 15 11 10 5 4 19 28 36 43 36 38 36 37 30 26 26 12 34 8 18 12 24 31 34 21 15 7 30 42 60 65 59
26 24 25 26 26 27 25 25 26 24 19 16 13 12 8 14 21 19 17 26 40 47 43 41 40 37 28 27 21 15 8 7 14 12 25 31 30 22 17 13 29 42 61 60 55
29 30 29 27 26 26 27 25 25 24 20 18 12 9 9 27 6 15 15 38 45 44 44 39 34 35 21 20 22 32 21 9 8 22 24 29 27 23 19 23 31 51 63 57 51
31 31 33 32 29 27 26 26 25 23 18 17 12 10 19 4 5 12 23 35 42 41 41 38 25 23 23 18 27 11 16 20 15 22 26 33 23 21 27 29 37 52 59 54 49
33 31 30 32 32 28 26 24 21 17 15 14 11 9 15 19 14 21 28 30 36 35 32 31 24 31 21 14 25 27 26 24 20 25 20 10 21 32 32 35 39 51 56 51 47
32 31 30 29 28 26 23 13 7 8 13 13 6 17 18 13 29 29 29 35 33 32 28 26 21 34 28 21 27 28 29 26 26 28 28 19 24 40 37 36 39 48 53 49 47
32 29 27 26 24 16 4 6 12 14 15 13 9 16 23 32 36 33 31 31 34 32 24 28 25 28 26 28 31 36 34 34 24 20 21 34 39 35 36 37 38 44 50 46 48
29 26 23 18 11 6 21 8 5 8 24 18 22 17 16 40 39 33 33 35 36 33 29 39 25 33 40 41 40 35 39 29 23 30 24 21 25 41 37 32 35 31 40 40 46
23 18 12 7 10 17 8 11 10 9 17 33 11 13 9 42 41 37 38 33 33 33 42 27 36 32 30 32 38 31 42 28 26 18 17 33 38 32 38 49 41 40 45 47 45
22 14 8 13 12 8 2 6 8 10 16 30 28 32 28 39 41 46 44 40 34 39 42 30 30 31 25 28 26 33 33 26 30 15 31 28 28 23 24 27 62 46 43 49 49
23 11 12 7 2 1 5 8 11 9 12 25 26 24 35 38 32 41 45 35 24 36 34 31 21 34 26 31 34 36 32 21 24 30 24 29 17 39 39 31 24 37 44 46 53
21 12 8 6 5 14 8 10 9 9 12 24 32 29 34 46 36 36 46 40 30 31 21 33 23 26 32 34 31 22 31 7 28 27 22 32 16 15 41 35 32 40 40 47 65
17 15 0 4 11 10 13 14 7 16 2 16 19 26 37 43 27 48 47 31 24 28 27 31 25 25 36 33 32 10 26 19 18 28 27 23 28 24 16 24 8 36 43 45 49
11 18 8 7 13 16 15 15 16 6 8 17 26 35 40 29 31 33 41 33 24 27 25 26 19 33 28 34 28 23 30 23 23 23 22 33 32 23 21 14 4 23 47 40 53
14 16 13 14 15 13 12 24 5 25 13 14 7 35 35 34 28 37 36 34 27 30 27 24 29 25 26 34 25 34 40 24 23 26 29 35 17 18 21 19 16 14 9 46 39
16 8 7 15 14 12 27 14 14 6 11 14 23 32 22 28 20 32 25 27 17 12 16 29 21 14 11 28 11 35 40 47 24 28 27 26 39 23 24 25 25 28 17 19 38
11 15 3 14 11 19 28 6 14 14 6 16 21 13 22 23 23 32 22 9 6 9 23 11 22 27 21 16 28 27 30 39 19 26 35 32 34 27 28 26 24 28 49 44 37
11 17 7 10 11 34 9 21 12 14 14 12 13 14 19 30 31 25 17 12 7 16 19 21 10 22 13 31 32 24 26 39 27 31 27 22 20 37 28 27 29 48 38 35 37
13 9 17 6 26 8 15 9 3 10 7 6 8 22 3 7 3 7 13 14 7 16 20 8 14 24 34 9 11 22 26 32 22 39 27 8 20 28 32 35 47 40 31 37 41
8 13 13 14 8 11 12 17 21 7 10 7 4 7 9 5 3 8 12 7 8 6 5 3 18 13 13 16 18 22 20 25 36 35 29 29 24 20 35 33 39 41 35 33 33
12 3 13 14 12 8 7 8 12 8 16 15 8 11 12 12 4 11 14 6 10 9 9 10 23 18 8 17 30 37 14 25 26 22 23 17 48 37 33 31 33 35 33 33 33
16 11 9 14 17 14 8 4 6 9 10 2 5 7 7 6 6 9 15 15 9 4 5 9 19 10 7 13 14 20 28 15 31 32 17 39 40 34 32 26 28 33 28 29 31
10 6 12 12 4 7 6 16 14 10 7 11 10 5 7 5 14 15 5 7 6 4 2 7 7 17 14 2 2 12 14 9 11 5 15 45 33 30 27 30 24 23 25 26 28
11 8 10 5 1 15 17 12 10 6 13 12 7 7 14 12 12 12 10 5 6 9 6 10 10 13 24 13 11 23 26 23 17 11 17 27 35 28 22 18 18 20 21 23 23
Wind_Direction_850mb
322 317 314 311 310 309 306 303 301 296 293 288 283 285 282 268 258 252 242 230 226 199 176 173 184 196 199 221 227 257 299 319 81 135 143 167 135 129 237 180 147 132 141 146 148
320 316 314 311 307 301 301 299 294 292 287 286 283 284 286 278 271 252 240 221 219 190 179 182 187 189 199 212 232 238 202 78 115 60 148 169 148 159 225 174 145 125 134 147 150
321 318 313 309 304 302 297 294 292 285 281 278 279 284 284 277 290 249 224 220 198 188 181 186 189 192 219 221 216 219 260 96 92 97 139 163 150 159 179 170 144 136 145 153 154
324 322 318 314 310 304 298 293 288 282 272 270 273 277 269 226 245 162 199 200 185 173 186 191 194 202 228 213 219 254 233 120 91 84 103 156 148 158 177 186 143 149 154 156 158
331 328 324 321 317 310 301 292 286 280 269 256 257 268 225 233 252 276 218 189 179 179 193 193 198 206 218 210 189 227 199 157 135 132 113 143 158 117 155 134 139 151 158 160 160
329 326 323 319 313 307 303 293 281 274 263 251 229 243 220 247 273 264 184 178 178 182 192 195 199 210 261 240 207 186 240 177 178 135 147 135 138 150 117 124 141 155 160 163 163
321 321 321 316 311 308 302 291 279 266 251 241 215 199 240 209 180 165 169 173 177 184 190 196 205 203 226 215 223 233 229 220 210 166 153 154 150 129 136 142 146 158 163 165 164
321 319 315 312 312 310 305 297 280 254 231 212 203 186 263 199 184 171 161 173 183 184 194 195 208 216 248 213 188 227 222 201 174 162 142 146 183 127 143 144 152 162 166 168 168
324 321 316 315 314 313 310 308 284 203 187 168 156 200 226 195 175 173 173 170 176 184 189 189 210 213 208 219 207 211 198 222 155 187 159 146 195 144 150 153 160 168 170 173 173
327 325 322 320 318 317 350 93 107 114 149 159 245 216 220 190 172 173 169 171 171 168 175 198 213 207 220 212 202 194 214 194 168 172 198 136 124 140 152 155 171 171 178 181 178
330 331 330 335 341 104 128 74 149 160 207 222 185 262 153 164 164 176 179 178 183 190 201 197 211 208 201 210 230 206 228 198 167 151 205 142 119 138 153 160 168 186 182 187 195
351 349 352 57 82 129 80 272 12 342 250 223 206 246 152 160 167 178 174 182 195 202 216 185 218 211 227 214 238 245 216 199 128 150 248 151 159 136 163 158 169 185 196 190 194
2 9 83 114 102 122 334 351 333 318 252 172 204 200 192 184 183 178 188 204 198 209 207 210 206 227 217 205 211 232 217 188 158 172 244 159 139 155 168 181 164 179 192 189 186
18 30 131 152 145 184 219 317 321 293 262 143 190 207 182 189 203 185 197 209 206 219 203 231 219 205 205 195 216 205 235 181 192 191 203 219 179 171 163 167 190 178 185 184 183
27 51 131 271 235 259 279 308 292 246 246 152 164 170 184 200 134 176 194 214 240 220 200 212 195 200 205 216 204 234 211 243 173 216 200 185 226 175 156 171 174 181 184 182 181
22 35 277 290 267 274 289 292 267 232 151 143 145 193 172 212 159 159 191 228 241 230 202 242 210 192 210 213 192 262 160 210 210 233 242 195 227 182 124 113 144 176 185 193 170
327 348 340 255 296 288 280 242 222 282 250 153 177 181 188 186 161 171 191 196 213 202 192 218 223 197 226 201 186 183 191 187 202 215 224 208 209 85 97 96 181 198 176 196 177
311 324 323 333 301 280 246 240 294 310 29 357 210 182 198 167 177 179 187 200 219 249 185 198 184 177 207 232 177 203 208 198 189 205 203 185 154 111 103 104 78 94 186 179 204
318 322 343 331 293 247 258 323 173 22 342 293 216 204 189 172 181 183 192 200 184 258 308 183 160 115 238 237 273 198 234 234 274 200 214 120 100 118 115 109 112 100 84 132 185
324 260 354 333 301 261 257 143 81 8 295 266 246 172 183 167 214 199 179 33 135 237 286 270 130 188 173 250 244 266 220 240 241 238 208 150 159 136 139 108 90 86 57 37 36
279 253 37 329 284 261 18 60 74 54 331 341 325 171 253 186 204 193 159 83 275 289 288 304 197 168 170 206 206 213 241 235 231 256 213 154 112 118 119 118 109 70 55 51 44
295 299 354 298 260 0 47 35 270 47 45 69 35 357 272 114 295 125 145 29 319 301 237 292 274 162 202 80 314 295 230 235 239 227 267 315 99 121 131 122 99 86 74 58 50
336 39 17 288 295 102 124 98 46 75 36 66 86 22 321 324 98 97 122 71 2 346 12 355 259 150 182 187 210 237 216 268 233 262 236 252 138 146 120 108 102 108 101 81 70
310 241 81 51 28 69 113 93 112 62 77 88 112 166 186 201 177 155 141 120 73 51 328 285 262 277 8 275 194 212 219 235 270 241 250 258 138 154 130 121 115 102 89 80 72
349 51 7 14 48 53 56 17 127 103 87 105 114 207 244 172 158 150 137 149 149 94 247 303 262 267 61 6 339 179 199 206 243 257 312 129 135 136 127 109 100 107 93 82 71
0 11 95 64 353 149 132 47 80 85 338 84 94 118 206 181 329 147 178 236 113 156 270 262 212 288 212 259 255 247 201 217 281 336 259 111 108 101 122 123 108 99 91 77 63
49 63 312 187 229 52 35 42 71 69 62 56 44 117 122 61 18 28 2 22 59 284 201 261 247 222 256 181 259 245 237 211 216 212 305 166 142 142 130 121 115 102 82 68 59